Weather History for LIRA - November, 2011

Change the Weather History Date:

Sunday, November 20, 2011

  Actual Average Record
Temperature  
Mean Temperature 48 °F -  
Max Temperature 59 °F 57 °F 64 °F (2003)
Min Temperature 37 °F 41 °F 33 °F (2005)
Degree Days  
Heating Degree Days 17    
Moisture  
Dew Point 40 °F    
Average Humidity 80    
Maximum Humidity 100    
Minimum Humidity 51    
Precipitation  
Precipitation 0.00 in 0.15 in - ()
Sea Level Pressure  
Sea Level Pressure 30.18 in    
Wind  
Wind Speed 3 mph ()    
Max Wind Speed 7 mph    
Max Gust Speed -    
Visibility 5.2 miles    
Events      
Averages and records for this station are not official NWS values.
T = Trace of Precipitation, MM = Missing Value Source: Averaged Metar Reports

Daily Weather History Graph

Daily Weather History Graph

Search for Another Location

Airport or City:

Trip Planner

Search our weather history database for the weather conditions in past years. The results will help you decide how hot, cold, wet, or windy it might be!

Date:

Astronomy

Nov. 20, 2011 Rise Set
Actual Time 7:04 AM CET 4:45 PM CET
Civil Twilight 6:34 AM CET 5:15 PM CET
Nautical Twilight 6:00 AM CET 5:49 PM CET
Astronomical Twilight 5:27 AM CET 6:22 PM CET
Moon 1:08 AM CET (11/20) 1:29 PM CET (11/20)
Length of Visible Light 10h 41m
Length of Day
9h 41m
Waning Crescent, 30% of the Moon is Illuminated
Nov 20
Waning Crescent
Nov 25
New
Dec 2
First Quarter
Dec 10
Full
Dec 18
Last Quarter

Hourly Weather History & Observations

Time (CET) Temp. Windchill Dew Point Humidity Pressure Visibility Wind Dir Wind Speed Gust Speed Precip Events Conditions
12:15 AM 41.0 °F - 41.0 °F 100% 30.21 in 5.0 mi NE 2.3 mph - N/A   Partly Cloudy
12:45 AM 41.0 °F - 41.0 °F 100% 30.21 in 5.0 mi NE 2.3 mph - N/A   Partly Cloudy
1:15 AM 41.0 °F 39.0 °F 41.0 °F 100% 30.21 in 5.0 mi NNE 3.5 mph - N/A   Partly Cloudy
1:45 AM 41.0 °F 39.0 °F 39.2 °F 93% 30.21 in 5.0 mi NE 3.5 mph - N/A   Partly Cloudy
2:15 AM 41.0 °F 39.0 °F 39.2 °F 93% 30.18 in 5.0 mi NNE 3.5 mph - N/A   Partly Cloudy
2:45 AM 41.0 °F - 39.2 °F 93% 30.18 in 5.0 mi North 2.3 mph - N/A   Partly Cloudy
3:15 AM 39.2 °F - 39.2 °F 100% 30.18 in 5.0 mi NNE 2.3 mph - N/A   Unknown
3:45 AM 39.2 °F - 39.2 °F 100% 30.18 in 5.0 mi North 2.3 mph - N/A   Unknown
4:15 AM 39.2 °F - 37.4 °F 93% 30.18 in 5.0 mi NNE 2.3 mph - N/A   Unknown
4:45 AM 39.2 °F - 39.2 °F 100% 30.18 in 5.0 mi NNE 2.3 mph - N/A   Unknown
5:15 AM 39.2 °F 37.0 °F 39.2 °F 100% 30.18 in 5.0 mi NE 3.5 mph - N/A   Unknown
5:45 AM 39.2 °F 37.0 °F 37.4 °F 93% 30.18 in 5.0 mi NE 3.5 mph - N/A   Unknown
6:15 AM 37.4 °F - 37.4 °F 100% 30.18 in 5.0 mi NE 2.3 mph - N/A   Unknown
6:45 AM 37.4 °F - 37.4 °F 100% 30.18 in 5.0 mi NE 2.3 mph - N/A   Unknown
7:15 AM 37.4 °F 34.9 °F 37.4 °F 100% 30.18 in 5.0 mi NE 3.5 mph - N/A   Unknown
7:45 AM 37.4 °F 34.9 °F 37.4 °F 100% 30.18 in 5.0 mi NNE 3.5 mph - N/A   Unknown
8:15 AM 37.4 °F 34.9 °F 35.6 °F 93% 30.18 in 5.0 mi NNE 3.5 mph - N/A   Unknown
8:45 AM 41.0 °F 39.0 °F 37.4 °F 87% 30.21 in 5.6 mi NNE 3.5 mph - N/A   Scattered Clouds
9:15 AM 42.8 °F - 39.2 °F 87% 30.21 in 5.6 mi ENE 2.3 mph - N/A   Scattered Clouds
9:45 AM 46.4 °F 43.5 °F 42.8 °F 87% 30.21 in 5.6 mi North 5.8 mph - N/A   Scattered Clouds
10:15 AM 50.0 °F - 44.6 °F 82% 30.21 in 5.6 mi NNE 4.6 mph - N/A   Scattered Clouds
10:45 AM 51.8 °F - 42.8 °F 71% 30.21 in 5.6 mi North 5.8 mph - N/A   Partly Cloudy
11:15 AM 53.6 °F - 41.0 °F 62% 30.21 in 6.2 mi NNE 4.6 mph - N/A   Partly Cloudy
11:45 AM 53.6 °F - 41.0 °F 62% 30.21 in - NNE 4.6 mph - N/A   Clear
12:15 PM 55.4 °F - 42.8 °F 63% 30.21 in - North 4.6 mph - N/A   Clear
12:45 PM 57.2 °F - 42.8 °F 59% 30.21 in - NNE 4.6 mph - N/A   Clear
1:15 PM 59.0 °F - 41.0 °F 51% 30.18 in - NNE 3.5 mph - N/A   Clear
1:45 PM 59.0 °F - 41.0 °F 51% 30.18 in - NW 3.5 mph - N/A   Clear
2:15 PM 59.0 °F - 41.0 °F 51% 30.18 in - WNW 2.3 mph - N/A   Clear
2:45 PM 59.0 °F - 41.0 °F 51% 30.18 in - NNW 1.2 mph - N/A   Clear
3:15 PM 59.0 °F - 41.0 °F 51% 30.18 in - Calm Calm - N/A   Clear
3:45 PM 59.0 °F - 42.8 °F 55% 30.18 in - NE 2.3 mph - N/A   Clear
4:15 PM 57.2 °F - 41.0 °F 55% 30.15 in - NE 6.9 mph - N/A   Clear
4:45 PM 55.4 °F - 41.0 °F 58% 30.15 in - NNE 2.3 mph - N/A   Clear
5:15 PM 53.6 °F - 41.0 °F 62% 30.15 in - NE 2.3 mph - N/A   Clear
5:45 PM 51.8 °F - 41.0 °F 67% 30.15 in - East 3.5 mph - N/A   Clear
6:15 PM 48.2 °F - 41.0 °F 76% 30.15 in 6.2 mi Calm Calm - N/A   Partly Cloudy
6:45 PM 48.2 °F - 41.0 °F 76% 30.15 in - ESE 4.6 mph - N/A   Clear
7:15 PM 48.2 °F - 39.2 °F 71% 30.15 in - ESE 4.6 mph - N/A   Clear
7:45 PM 46.4 °F 42.9 °F 39.2 °F 76% 30.15 in - East 6.9 mph - N/A   Clear
8:15 PM 48.2 °F - 41.0 °F 76% 30.18 in - SE 2.3 mph - N/A   Clear
8:45 PM 46.4 °F 43.5 °F 39.2 °F 76% 30.18 in - ESE 5.8 mph - N/A   Clear
9:15 PM 46.4 °F 45.2 °F 39.2 °F 76% 30.18 in - East 3.5 mph - N/A   Clear
9:45 PM 46.4 °F 45.2 °F 41.0 °F 81% 30.18 in - ENE 3.5 mph - N/A   Clear
10:15 PM 44.6 °F - 39.2 °F 81% 30.18 in - East 1.2 mph - N/A   Clear
10:45 PM 44.6 °F - 39.2 °F 81% 30.18 in - NNE 2.3 mph - N/A   Clear
11:15 PM 42.8 °F - 41.0 °F 93% 30.18 in - NE 1.2 mph - N/A   Clear
11:45 PM 42.8 °F 41.1 °F 39.2 °F 87% 30.18 in - NNE 3.5 mph - N/A   Clear